Weather History for Gwinn, MI

Change the Weather History Date:

Wednesday, October 23, 2013

  Actual Average (KESC) Record (KESC)
Temperature  
Mean Temperature 34 °F -  
Max Temperature 39 °F 52 °F 73 °F (1998)
Min Temperature 28 °F 39 °F 24 °F (1969)
Degree Days  
Heating Degree Days 32    
Moisture  
Dew Point 26 °F    
Average Humidity 79    
Maximum Humidity 90    
Minimum Humidity 52    
Precipitation  
Precipitation 0.00 in - - ()
Sea Level Pressure  
Sea Level Pressure 29.85 in    
Wind  
Wind Speed 8 mph (WNW)    
Max Wind Speed 22 mph    
Max Gust Speed 29 mph    
Visibility 10 miles    
Events      
Averages and records for this station are not official NWS values.
T = Trace of Precipitation, MM = Missing Value Source: NWS Daily Summary

Daily Weather History Graph

Daily Weather History Graph

Search for Another Location

Airport:

Trip Planner

Search our weather history database for the weather conditions in past years. The results will help you decide how hot, cold, wet, or windy it might be!

Date:

Astronomy

Oct. 23, 2013 Rise Set
Actual Time 8:18 AM EDT 6:48 PM EDT
Civil Twilight 7:47 AM EDT 7:19 PM EDT
Nautical Twilight 7:12 AM EDT 7:54 PM EDT
Astronomical Twilight 6:37 AM EDT 8:29 PM EDT
Moon 10:10 PM EDT (10/23) 12:44 PM EDT (10/23)
Length of Visible Light 11h 31m
Length of Day
10h 30m
Waning Gibbous, 79% of the Moon is Illuminated
Oct 23
Waning Gibbous
Oct 26
Last Quarter
Nov 3
New
Nov 10
First Quarter
Nov 17
Full

Hourly Weather History & Observations

Time (EDT) Temp. Windchill Dew Point Humidity Pressure Visibility Wind Dir Wind Speed Gust Speed Precip Events Conditions
12:16 AM 32.5 °F 25.5 °F 27.5 °F 82% 29.87 in 10.0 mi WNW 8.1 mph - N/A   Overcast
12:37 AM 32.4 °F 26.9 °F 27.9 °F 83% 29.87 in 10.0 mi WNW 5.8 mph - N/A   Overcast
12:56 AM 32.2 °F 26.7 °F 28.0 °F 85% 29.87 in 10.0 mi West 5.8 mph - N/A   Overcast
1:17 AM 32.2 °F 27.7 °F 28.2 °F 85% 29.87 in 10.0 mi West 4.6 mph - N/A   Overcast
1:36 AM 32.2 °F 25.8 °F 28.2 °F 85% 29.86 in 10.0 mi West 6.9 mph - N/A   Overcast
1:56 AM 32.0 °F 25.6 °F 28.4 °F 87% 29.86 in 10.0 mi West 6.9 mph - N/A   Overcast
2:17 AM 32.0 °F 24.2 °F 28.4 °F 87% 29.86 in 10.0 mi West 9.2 mph - N/A   Overcast
2:36 AM 32.0 °F 24.8 °F 28.2 °F 86% 29.86 in 10.0 mi West 8.1 mph - N/A   Overcast
2:57 AM 32.0 °F 24.2 °F 27.7 °F 84% 29.85 in 10.0 mi West 9.2 mph - N/A   Overcast
3:16 AM 32.4 °F 24.6 °F 27.1 °F 81% 29.85 in 10.0 mi WNW 9.2 mph - N/A   Overcast
3:36 AM 32.0 °F 24.2 °F 27.5 °F 83% 29.85 in 10.0 mi West 9.2 mph - N/A   Overcast
3:57 AM 31.8 °F 26.2 °F 27.7 °F 85% 29.85 in 10.0 mi West 5.8 mph - N/A   Overcast
4:16 AM 31.5 °F 25.8 °F 27.7 °F 86% 29.84 in 10.0 mi West 5.8 mph - N/A   Overcast
4:37 AM 31.1 °F 25.4 °F 27.7 °F 87% 29.84 in 10.0 mi West 5.8 mph - N/A   Overcast
4:56 AM 30.7 °F 23.3 °F 27.5 °F 88% 29.84 in 10.0 mi West 8.1 mph - N/A   Scattered Clouds
5:17 AM 30.2 °F 23.4 °F 27.3 °F 89% 29.83 in 10.0 mi West 6.9 mph - N/A   Clear
5:36 AM 30.0 °F 26.5 °F 27.1 °F 89% 29.83 in 10.0 mi West 3.5 mph - N/A   Scattered Clouds
5:57 AM 29.3 °F - 26.6 °F 90% 29.82 in 10.0 mi Calm Calm - N/A   Clear
6:55 AM 28.4 °F 24.6 °F 24.8 °F 86% 29.82 in 10.0 mi WNW 3.5 mph - N/A   Clear
7:50 AM 28.4 °F 23.3 °F 24.8 °F 86% 29.83 in 10.0 mi WNW 4.6 mph - N/A   Scattered Clouds
8:50 AM 28.4 °F 22.2 °F 24.8 °F 86% 29.83 in 10.0 mi West 5.8 mph - N/A   Clear
9:50 AM 30.2 °F 21.9 °F 26.6 °F 86% 29.83 in 10.0 mi West 9.2 mph - N/A   Scattered Clouds
10:50 AM 33.8 °F 24.3 °F 28.4 °F 81% 29.83 in 10.0 mi West 13.8 mph 17.3 mph N/A   Mostly Cloudy
11:50 AM 35.6 °F 28.0 °F 28.4 °F 75% 29.83 in 10.0 mi WNW 10.4 mph - N/A   Mostly Cloudy
12:50 PM 37.4 °F 28.2 °F 24.8 °F 60% 29.83 in 10.0 mi NW 16.1 mph 24.2 mph N/A   Mostly Cloudy
1:50 PM 37.4 °F 26.6 °F 24.8 °F 60% 29.82 in 10.0 mi NW 21.9 mph 28.8 mph N/A   Overcast
2:50 PM 39.2 °F 29.8 °F 23.0 °F 52% 29.83 in 10.0 mi WNW 18.4 mph - N/A   Mostly Cloudy
3:50 PM 37.4 °F 29.3 °F 24.8 °F 60% 29.83 in 10.0 mi NNW 12.7 mph - N/A   Overcast
4:50 PM 35.6 °F 27.5 °F 24.8 °F 65% 29.85 in 10.0 mi WNW 11.5 mph - N/A   Overcast
5:50 PM 35.6 °F 25.2 °F 23.0 °F 60% 29.86 in 10.0 mi NW 18.4 mph 25.3 mph N/A   Overcast
6:50 PM 35.6 °F 28.6 °F 23.0 °F 60% 29.87 in 10.0 mi NW 9.2 mph - N/A   Overcast
7:50 PM 33.8 °F 27.7 °F 24.8 °F 70% 29.88 in 10.0 mi WNW 6.9 mph - N/A   Overcast
8:50 PM 33.8 °F 27.0 °F 24.8 °F 70% 29.87 in 10.0 mi WNW 8.1 mph - N/A   Overcast
9:47 PM 32.0 °F 24.2 °F 24.8 °F 75% 29.87 in 10.0 mi West 9.2 mph - N/A   Mostly Cloudy
10:16 PM 31.8 °F 25.4 °F 25.7 °F 78% 29.87 in 10.0 mi WNW 6.9 mph - N/A   Overcast
10:36 PM 31.6 °F 24.4 °F 26.4 °F 81% 29.87 in 10.0 mi WNW 8.1 mph - N/A   Overcast
10:57 PM 31.8 °F 26.2 °F 26.6 °F 81% 29.87 in 10.0 mi West 5.8 mph - N/A   Overcast
11:16 PM 31.6 °F 27.0 °F 26.8 °F 82% 29.87 in 10.0 mi West 4.6 mph - N/A   Mostly Cloudy
11:37 PM 30.9 °F 25.2 °F 26.6 °F 84% 29.87 in 10.0 mi West 5.8 mph - N/A   Mostly Cloudy
11:56 PM 30.4 °F 24.5 °F 26.6 °F 86% 29.87 in 10.0 mi West 5.8 mph - N/A   Scattered Clouds